TimeCDT,TemperatureF,Dew PointF,Humidity,Sea Level PressureIn,VisibilityMPH,Wind Direction,Wind SpeedMPH,Gust SpeedMPH,PrecipitationIn,Events,Conditions,WindDirDegrees,DateUTC
12:52 AM,51.1,36.0,56,29.95,10.0,South,6.9,-,N/A,,Clear,170,2012-10-09 05:52:00
1:52 AM,46.0,35.1,66,29.95,10.0,SE,6.9,-,N/A,,Clear,140,2012-10-09 06:52:00
2:52 AM,45.0,35.1,68,29.94,10.0,SSE,6.9,-,N/A,,Clear,160,2012-10-09 07:52:00
3:52 AM,39.9,33.1,77,29.94,10.0,South,5.8,-,N/A,,Clear,170,2012-10-09 08:52:00
4:52 AM,39.0,33.1,79,29.93,10.0,SE,4.6,-,N/A,,Clear,140,2012-10-09 09:52:00
6:52 AM,39.0,34.0,82,29.93,10.0,SE,4.6,-,N/A,,Clear,130,2012-10-09 11:52:00
7:52 AM,41.0,35.1,79,29.93,9.0,SE,3.5,-,N/A,,Clear,130,2012-10-09 12:52:00
8:52 AM,50.0,39.0,66,29.92,10.0,South,8.1,-,N/A,,Clear,190,2012-10-09 13:52:00
9:52 AM,55.9,41.0,57,29.92,10.0,SSW,9.2,-,N/A,,Clear,200,2012-10-09 14:52:00
10:52 AM,60.1,43.0,53,29.93,10.0,WSW,11.5,-,N/A,,Clear,250,2012-10-09 15:52:00
11:52 AM,64.0,44.1,48,29.91,10.0,WSW,8.1,-,N/A,,Clear,250,2012-10-09 16:52:00
12:52 PM,66.9,45.0,45,29.91,10.0,SW,10.4,-,N/A,,Scattered Clouds,230,2012-10-09 17:52:00
1:52 PM,66.9,45.0,45,29.90,10.0,Variable,4.6,-,N/A,,Overcast,0,2012-10-09 18:52:00
2:52 PM,64.0,42.1,45,29.90,10.0,North,11.5,-,N/A,,Overcast,360,2012-10-09 19:52:00
3:52 PM,63.0,39.9,43,29.93,10.0,North,10.4,-,N/A,,Overcast,350,2012-10-09 20:52:00
4:52 PM,61.0,39.9,46,29.96,10.0,North,15.0,-,N/A,,Overcast,350,2012-10-09 21:52:00
5:52 PM,59.0,42.1,53,29.99,10.0,North,15.0,-,N/A,,Overcast,360,2012-10-09 22:52:00
6:52 PM,57.9,39.0,49,30.02,10.0,North,10.4,-,N/A,,Overcast,350,2012-10-09 23:52:00
7:52 PM,54.0,35.1,49,30.05,10.0,North,9.2,-,N/A,,Clear,350,2012-10-10 00:52:00
8:52 PM,46.9,34.0,61,30.08,10.0,NNW,10.4,-,N/A,,Clear,340,2012-10-10 01:52:00
9:52 PM,45.0,28.0,52,30.12,10.0,North,6.9,-,N/A,,Clear,350,2012-10-10 02:52:00
10:52 PM,36.0,26.1,67,30.15,10.0,Calm,Calm,-,N/A,,Clear,0,2012-10-10 03:52:00
11:52 PM,35.1,27.0,72,30.16,10.0,Calm,Calm,-,N/A,,Clear,0,2012-10-10 04:52:00